Tracking 19219 objects as of 21-Jul-2018
HD Live streaming from Space Station
objects crossing your sky now

FENGYUN 1C DEB

Track FENGYUN 1C DEB now!
10-day predictions


NORAD ID: 30637
Int'l Code: 1999-025ANU
Perigee: 622.2 km
Apogee: 748.0 km
Inclination: 98.9 °
Period: 98.3 minutes
Semi major axis: 7056 km
RCS: 0.039 m2 (small)
Launch date: May 10, 1999
Source: People's Republic of China (PRC)
Launch site: Taiyaun Space Center, China (TSC)

Note: This is SATELLITE DEBRIS
aabbcc
Your satellite tracking list
Your tracking list is empty




NASA's NSSDC Master Catalog

Two Line Element Set (TLE):
1 30637U 99025ANU 18201.76721932  .00000970  00000-0  18295-3 0  9997
2 30637  98.9127 134.9321 0089152 338.0140  77.5585 14.64728157605423
Source of the keplerian elements: AFSPC